Starlink 31201

operational
NORAD ID: 58870 Int'l Des: 2024-019 Owner: SPXS Country: US Constellation: starlink
LEOCIRCULAR

Über Starlink 31201

Beschreibung wird geladen...

Live-Position

3D-Globus wird geladen...

Nächste Überflüge

Höhenverlauf

Altitude vs Time

uPlot chart will show altitude changes over time

Zweizeiliger Elementsatz

1 58870U 24019T 25259.41210088 .00001444 00000-0 61962-4 0 9992
2 58870 42.9987 152.7445 0000604 28.8816 331.2069 15.27583092 92412
Epoch: 16. Sept. 2025 • Age: 38 hours

Aktueller Status

Höhe 487.1 km
Geschwindigkeit 7.62 km/s
Subsatellitenpunkt -19.34°S, 133.38°E
Startdatum 29. Jan. 2024
Alter 1.6 years
Typ internet

Technische Details

Klassifizierung Payload
Masse 730.00 kg
Trockenmasse 700.00 kg
Gesamtmasse 730.00 kg
Länge 0.30 m
Durchmesser 4.10 m
Spannweite 29.00 m
Form Box + pan
Hersteller SPXS
Bus-Typ Starlink V2M
Phasenstatus In Orbit
Besitzer/Staat SPXS/US

Große Konstellationen

Loading constellations...